This demonstration page uses our WeatherBlox Daily Observations layout. Learn more.

Left ArrowRight Arrow

39.12711, -84.51439

Hourly Observations for July 15, 2021

Temp ( °F °C ) Dew Point ( °F °C ) Humidity (%) Winds ( mph kmh ) Pressure ( in mb ) Visibility ( mi km ) Precip ( " mm )
12:53 am 00:53 Mostly Cloudy with Mist and Fog 72 22.2 70 21.1 94 94 N N/A 30.14 1021 6 10 N/A
1:53 am 01:53 Mostly Cloudy 72 22.2 70 21.1 94 94 N N/A 30.13 1020 7 11 N/A
2:53 am 02:53 Cloudy with Mist and Fog 72 22.2 70 21.1 94 94 N N/A 30.13 1020 6 10 N/A
3:53 am 03:53 Clear with Mist and Fog 69 20.6 69 20.6 100 100 N N/A 30.12 1020 3 5 N/A
4:53 am 04:53 Clear with Mist and Fog 69 20.6 68 20 96 96 N N/A 30.11 1020 5 8 N/A
5:18 am 05:18 Clear with Mist and Fog 68 20 68 20 100 100 N N/A 30.12 1020 2 3 N/A
5:36 am 05:36 Clear with Mist and Fog 68 20 68 20 100 100 N N/A 30.12 1020 3 4 N/A
5:46 am 05:46 Clear with Mist and Fog 69 20.6 67 19.4 93 93 N N/A 30.12 1020 4 6 N/A
5:53 am 05:53 Clear with Mist and Fog 69 20.6 68 20 96 96 N N/A 30.12 1020 5 8 N/A
6:26 am 06:26 Sunny with Mist and Fog 67 19.4 66 18.9 97 97 N N/A 30.12 1020 2 3 N/A
6:34 am 06:34 Sunny with Mist and Fog 67 19.4 66 18.9 97 97 S 5 7 30.12 1020 1 2 N/A
6:48 am 06:48 Sunny 68 20 66 19 94 94 N N/A 30.12 1020 10 16 N/A
6:53 am 06:53 Sunny 68 20 67 19.4 96 96 N N/A 30.11 1020 10 16 N/A
7:53 am 07:53 Sunny 72 22.2 69 20.6 91 91 N N/A 30.12 1020 10 16 N/A
8:53 am 08:53 Mostly Cloudy 75 23.9 69 20.6 82 82 S 6 9 30.12 1020 10 16 N/A
9:53 am 09:53 Sunny 79 26.1 70 21.1 74 74 SSW 8 13 30.12 1020 10 16 N/A
10:53 am 10:53 Mostly Sunny 82 27.8 71 21.7 69 69 SSW 12 19 30.11 1020 10 16 N/A
11:53 am 11:53 Partly Cloudy 84 28.9 71 21.7 65 65 SSW 16 26 30.10 1019 10 16 N/A
12:53 pm 12:53 Partly Cloudy 86 30 73 22.8 65 65 SW 12 19 30.09 1019 10 16 N/A
1:53 pm 13:53 Partly Cloudy 87 30.6 73 22.8 63 63 SW 10 17 30.07 1018 10 16 N/A
2:53 pm 14:53 Mostly Cloudy 87 30.6 73 22.8 63 63 SSW 9 15 30.05 1018 10 16 N/A
3:53 pm 15:53 Partly Cloudy 88 31.1 72 22.2 59 59 SSW 13 20 30.02 1017 10 16 N/A
4:53 pm 16:53 Partly Cloudy 87 30.6 70 21.1 57 57 SSW 14 22 30.00 1016 10 16 N/A
5:53 pm 17:53 Partly Cloudy 87 30.6 71 21.7 59 59 SW 14 22 29.99 1016 10 16 N/A
6:53 pm 18:53 Partly Cloudy 87 30.6 69 20.6 55 55 SW 9 15 29.99 1016 10 16 N/A
7:53 pm 19:53 Partly Cloudy 84 28.9 68 20 59 59 WSW 10 17 29.98 1015 10 16 N/A
8:53 pm 20:53 Sunny 79 26.1 70 21.1 74 74 S 6 9 30.00 1016 10 16 N/A
9:53 pm 21:53 Clear 77 25 72 22.2 85 85 S 6 9 30.02 1017 10 16 N/A
10:53 pm 22:53 Clear 75 23.9 71 21.7 88 88 S 7 11 30.03 1017 10 16 N/A
11:53 pm 23:53 Mostly Clear 77 25 71 21.7 82 82 S 9 15 30.03 1017 10 16 N/A

Powered by AerisWeather